Погода в Светлограде

Россия / Ставропольский край     45°19′42″N   42°51′23″E
темп.,
°C
ветер,
м/с
пор.,
м/с
влажн.,
%
обл.,
%
осадки,
мм/ч
давл.,
гПа
погр.,
м
8 марта, пн
пн800:00−2юз245814 0.0 1022144
03:00−2зюз36557 0.0 1022194
06:00−2ююз34580 0.0 102297
09:00+1зюз46450 0.0 1020757
12:00+4з56410 0.0 10191063
15:00+5зюз45482 0.0 10171173
18:00+1зюз34620 0.0 101770
21:000юз367133 0.0 1018152
9 марта, вт
вт900:000юз3776100 0.0 1017210
03:00−1юз358097 0.0 1017109
06:000зюз4127662 0.0 1016509
09:00+3зюз6125762 0.0 10161355
12:00+5з81151100 0.0 10161593
15:00+4зсз8127999 0.3 10151147
18:00+1з51182100 2.1 1017805
21:00+1з61276100 2.5 1020636
10 марта, ср
ср1000:00−2з41076100 0.0 1021492
03:00−3з497976 0.0 1023456
06:00−3зсз378440 0.0 1024431
09:00−2сз456536 0.0 1026954
12:00+1сз344897 0.0 10251290
15:00+1с334496 0.0 10241304
18:00−1всв3358100 0.0 102393
21:00−2всв5859100 0.0 1023391
11 марта, чт
чт1100:00−2в5858100 0.1 1021717
03:00−4в6991100 1.1 1021594
06:00−4в71191100 1.1 1021583
09:00−4в81289100 2.1 1021660
12:00−3в81274100 0.8 1021967
15:00−3в81157100 0.8 10221265
18:00−5в71064100 0.1 10241053
21:00−5в5965100 0.1 10261051
12 марта, пт
пт1200:00−6всв5858100 0.0 1027962
03:00−7всв5757100 0.0 1029898
06:00−8в5756100 0.0 1031765
09:00−7в565299 0.0 1033740
12:00−5вюв454873 0.0 1032932
15:00−3вюв444537 0.0 10311187
18:00−5юв35603 0.0 1031241
21:00−7вюв26722 0.0 1033316